This demonstration page uses our WeatherBlox Daily Observations layout. Learn more.

39.08367, -84.50855

Hourly Observations for January 19, 2019

Temp ( °F °C ) Dew Point ( °F °C ) Humidity (%) Winds ( mph kmh ) Pressure ( in mb ) Visibility ( mi km ) Precip ( " mm )
12:53 am 00:53 Cloudy 36 2.2 31 -0.6 82 82 E 5 7 30.03 1017 10 16.09344 0 0
1:53 am 01:53 Cloudy 36 2.2 31 -0.6 82 82 ENE 9 15 30 1016 10 16.09344 0 0
2:39 am 02:39 Cloudy 37 2.8 31 -0.6 79 79 VRB 3 6 30 1016 10 16.09344 0 0
2:53 am 02:53 Cloudy 37 2.8 31 -0.6 79 79 NE 3 6 30 1016 10 16.09344 0 0
3:38 am 03:38 Cloudy 37 2.8 31 -0.6 79 79 NE 6 9 30.03 1017 10 16.09344 0 0
3:53 am 03:53 Cloudy 37 2.8 31 -0.6 79 79 NNE 7 11 30 1016 10 16.09344 0 0
4:53 am 04:53 Cloudy 36 2.2 31 -0.6 82 82 ENE 7 11 29.94 1014 10 16.09344 0 0
5:53 am 05:53 Cloudy 37 2.8 31 -0.6 79 79 NE 5 7 29.94 1014 10 16.09344 0 0
6:53 am 06:53 Cloudy 37 2.8 31 -0.6 79 79 ENE 7 11 29.88 1012 10 16.09344 0 0
7:53 am 07:53 Cloudy with Rain 36 2.2 33 0.6 89 89 NE 8 13 29.85 1011 4 6.437376 0.07 1.778
8:23 am 08:23 Cloudy with Rain 36 2.2 33 0.6 89 89 NE 8 13 29.88 1012 3 4.828032 0.08 2.032
8:53 am 08:53 Cloudy with Rain 35 1.7 34 1.1 96 96 NNE 10 17 29.83 1010 2 3.218688 0.19 4.826
9:53 am 09:53 Cloudy with Light Rain 37 2.8 35 1.7 93 93 VRB 6 9 29.8 1009 3 4.828032 0.11 2.794
10:04 am 10:04 Cloudy with Light Rain 37 2.8 35 1.7 93 93 ENE 6 9 29.8 1009 2.5 4.02336 0.01 0.254
10:53 am 10:53 Cloudy with Light Rain 39 3.9 36 2.2 89 89 NE 5 7 29.77 1008 3 4.828032 0.05 1.27
11:32 am 11:32 Cloudy with Rain 39 3.9 37 2.8 93 93 N 6 9 29.77 1008 2 3.218688 0.05 1.27
11:53 am 11:53 Cloudy with Light Rain 39 3.9 37 2.8 93 93 NNE 7 11 29.74 1007 3 4.828032 0.09 2.286
12:53 pm 12:53 Cloudy with Light Rain 39 3.9 38 3.3 96 96 NE 9 15 29.65 1004 2 3.218688 0.11 2.794
1:53 pm 13:53 Cloudy with Light Rain 41 5 39 3.9 93 93 NNE 7 11 29.62 1003 3 4.828032 0.03 0.762
2:30 pm 14:30 Cloudy with Light Rain 40 4.4 38 3.3 93 93 NNE 9 15 29.62 1003 3 4.828032 0.03 0.762
2:53 pm 14:53 Cloudy with Light Rain 39 3.9 37 2.8 93 93 NNE 10 17 29.56 1001 2 3.218688 0.05 1.27
3:53 pm 15:53 Cloudy with Light Rain 38 3.3 36 2.2 93 93 NNE 12 19 29.56 1001 2 3.218688 0.05 1.27
4:53 pm 16:53 Cloudy with Light Rain 37 2.8 34 1.1 89 89 NNE 16 26 29.56 1001 2 3.218688 0.04 1.016
5:34 pm 17:34 Cloudy with Rain 36 2.2 33 0.6 89 89 NNE 17 28 29.62 1003 3 4.828032 0.07 1.778
5:53 pm 17:53 Cloudy with Light Rain 36 2.2 33 0.6 89 89 NNE 12 19 29.56 1001 5 8.04672 0.09 2.286
6:01 pm 18:01 Cloudy with Light Rain 36 2.2 33 0.6 89 89 NNE 14 22 29.62 1003 5 8.04672 0.001 0.001
6:53 pm 18:53 Cloudy 35 1.7 32 0 89 89 NNE 12 19 29.53 1000 8 12.874752 0.01 0.254
7:53 pm 19:53 Cloudy with Light Rain 34 1.1 31 -0.6 89 89 N 14 22 29.56 1001 4 6.437376 0.05 1.27
8:50 pm 20:50 Cloudy with Mist and Fog 34 1 30 -1 87 87 N 18 30 29.62 1003 5 8.04672 0.06 1.524
8:53 pm 20:53 Cloudy with Mist and Fog 33 0.6 30 -1.1 89 89 NNE 24 39 29.56 1001 5 8.04672 0.07 1.778
9:03 pm 21:03 Cloudy with Light Rain 33 0.6 29 -1.7 85 85 N 18 30 29.62 1003 6 9.656064 0.001 0.001
9:23 pm 21:23 Cloudy with Light Freezing Rain 31 -0.6 27 -2.8 85 85 N 22 35 29.62 1003 4 6.437376 0.001 0.001
9:53 pm 21:53 Cloudy 28 -2.2 23 -5 81 81 N 24 39 29.59 1002 7 11.265408 0.001 0.001
10:17 pm 22:17 Cloudy with Light Snow 27 -2.8 22 -5.6 81 81 N 18 30 29.68 1005 2.5 4.02336 0.001 0.001
10:40 pm 22:40 Windy with Snow Likely 26 -3.3 22 -5.6 84 84 N 21 33 29.71 1006 1.25 2.01168 0.01 0.254
10:53 pm 22:53 Cloudy with Light Snow 26 -3.3 22 -5.6 84 84 N 15 24 29.65 1004 1.25 2.01168 0.01 0.254
11:20 pm 23:20 Cloudy with Light Snow 25 -3.9 21 -6.1 85 85 N 16 26 29.74 1007 0.75 1.207008 0.01 0.254
11:31 pm 23:31 Mostly Cloudy with Scattered Snow Showers 24 -4.4 20 -6.7 84 84 N 22 35 29.74 1007 1 1.609344 0.01 0.254
11:51 pm 23:51 Mostly Cloudy with Snow 25 -4 19 -7 80 80 N 22 35 29.74 1007 0.5 0.804672 0.01 0.254
11:53 pm 23:53 Mostly Cloudy with Snow 23 -5 20 -6.7 88 88 N 20 31 29.68 1005 0.5 0.804672 0.01 0.254
11:58 pm 23:58 Mostly Cloudy with Heavy Snow 23 -5 20 -6.7 88 88 N 15 24 29.77 1008 0.25 0.402336 0.01 0.254

Powered by AerisWeather